TimePDT,TemperatureF,Dew PointF,Humidity,Sea Level PressureIn,VisibilityMPH,Wind Direction,Wind SpeedMPH,Gust SpeedMPH,PrecipitationIn,Events,Conditions,WindDirDegrees,DateUTC
12:53 AM,55.9,53.1,90,29.92,10.0,Calm,Calm,-,N/A,,Overcast,0,2012-10-19 07:53:00
1:53 AM,55.9,53.1,90,29.92,10.0,Calm,Calm,-,0.00,,Overcast,0,2012-10-19 08:53:00
2:53 AM,55.9,54.0,93,29.91,10.0,WSW,3.5,-,0.00,,Overcast,240,2012-10-19 09:53:00
3:53 AM,57.0,54.0,89,29.91,10.0,SSE,3.5,-,N/A,,Overcast,160,2012-10-19 10:53:00
4:53 AM,57.0,52.0,83,29.91,9.0,East,3.5,-,0.01,Rain,Light Rain,80,2012-10-19 11:53:00
5:53 AM,57.9,51.1,78,29.91,10.0,ESE,4.6,-,0.00,,Overcast,120,2012-10-19 12:53:00
6:53 AM,57.0,48.9,74,29.92,10.0,Variable,4.6,-,N/A,,Overcast,0,2012-10-19 13:53:00
7:01 AM,57.2,48.2,72,29.93,10.0,SSW,9.2,-,N/A,,Overcast,200,2012-10-19 14:01:00
7:53 AM,55.0,46.9,74,29.93,10.0,ENE,3.5,-,N/A,,Overcast,60,2012-10-19 14:53:00
8:53 AM,55.9,46.0,69,29.94,10.0,Calm,Calm,-,N/A,,Overcast,0,2012-10-19 15:53:00
9:53 AM,55.9,46.9,72,29.94,10.0,East,3.5,-,N/A,,Overcast,100,2012-10-19 16:53:00
10:53 AM,55.0,48.9,80,29.92,10.0,East,5.8,-,N/A,,Overcast,100,2012-10-19 17:53:00
11:53 AM,57.0,50.0,77,29.91,10.0,Calm,Calm,-,N/A,,Overcast,0,2012-10-19 18:53:00
12:53 PM,57.9,51.1,78,29.90,10.0,Calm,Calm,-,N/A,,Overcast,0,2012-10-19 19:53:00
1:53 PM,59.0,53.1,81,29.87,10.0,SW,4.6,-,0.00,,Overcast,220,2012-10-19 20:53:00
2:53 PM,61.0,53.1,75,29.84,10.0,SSW,8.1,-,N/A,,Overcast,210,2012-10-19 21:53:00
3:00 PM,60.8,51.8,72,29.83,10.0,SW,8.1,-,N/A,,Overcast,220,2012-10-19 22:00:00
3:44 PM,62.6,53.6,72,29.82,10.0,SW,12.7,18.4,N/A,,Overcast,220,2012-10-19 22:44:00
3:53 PM,62.1,53.1,72,29.82,10.0,SW,10.4,17.3,N/A,,Overcast,220,2012-10-19 22:53:00
4:46 PM,60.8,53.6,77,29.80,10.0,SW,12.7,-,N/A,,Overcast,220,2012-10-19 23:46:00
4:53 PM,61.0,53.1,75,29.81,10.0,SW,10.4,18.4,N/A,,Overcast,230,2012-10-19 23:53:00
5:35 PM,59.0,53.6,82,29.79,5.0,WSW,6.9,17.3,0.03,Rain,Rain,250,2012-10-20 00:35:00
5:53 PM,57.9,54.0,87,29.79,3.0,West,10.4,-,0.15,Rain,Rain,260,2012-10-20 00:53:00
6:09 PM,57.2,53.6,88,29.78,9.0,WSW,6.9,-,0.03,Rain,Light Rain,250,2012-10-20 01:09:00
6:53 PM,57.9,55.0,90,29.78,10.0,Variable,3.5,-,0.03,Rain,Light Rain,0,2012-10-20 01:53:00
7:02 PM,57.2,55.4,94,29.79,6.0,WNW,3.5,-,0.01,Rain,Light Rain,300,2012-10-20 02:02:00
7:22 PM,55.4,51.8,88,29.80,2.5,Variable,3.5,-,0.07,Rain,Rain,0,2012-10-20 02:22:00
7:34 PM,55.4,51.8,88,29.80,2.5,West,5.8,-,0.12,Rain,Heavy Rain,280,2012-10-20 02:34:00
7:46 PM,55.4,51.8,88,29.80,7.0,Variable,4.6,-,0.13,Rain,Light Rain,0,2012-10-20 02:46:00
7:53 PM,55.0,52.0,89,29.81,6.0,Calm,Calm,-,0.14,Rain,Light Rain,0,2012-10-20 02:53:00
7:58 PM,53.6,51.8,94,29.80,2.5,Calm,Calm,-,0.03,Rain,Rain,0,2012-10-20 02:58:00
8:02 PM,53.6,51.8,94,29.81,2.5,Calm,Calm,-,0.04,Rain,Rain,0,2012-10-20 03:02:00
8:11 PM,55.4,51.8,88,29.81,9.0,Calm,Calm,-,0.04,Rain,Light Rain,0,2012-10-20 03:11:00
8:25 PM,53.6,51.8,94,29.82,10.0,West,3.5,-,0.04,,Overcast,260,2012-10-20 03:25:00
8:53 PM,54.0,51.1,90,29.83,10.0,SW,4.6,-,0.04,,Overcast,230,2012-10-20 03:53:00
9:50 PM,53.6,51.8,94,29.84,10.0,Calm,Calm,-,N/A,,Overcast,0,2012-10-20 04:50:00
9:53 PM,54.0,52.0,93,29.84,10.0,Calm,Calm,-,N/A,,Overcast,0,2012-10-20 04:53:00
10:38 PM,55.4,51.8,88,29.83,10.0,SSE,3.5,-,0.01,Rain,Light Rain,160,2012-10-20 05:38:00
10:50 PM,55.4,51.8,88,29.83,10.0,South,3.5,-,0.01,,Overcast,170,2012-10-20 05:50:00
10:53 PM,55.0,52.0,89,29.83,10.0,Calm,Calm,-,0.01,,Overcast,0,2012-10-20 05:53:00
11:17 PM,55.4,51.8,88,29.86,3.0,NW,8.1,17.3,0.06,Rain,Light Rain,310,2012-10-20 06:17:00
11:22 PM,53.6,50.0,88,29.87,1.8,Variable,5.8,17.3,0.10,Rain,Heavy Rain,0,2012-10-20 06:22:00
11:27 PM,53.6,50.0,88,29.86,2.0,Calm,Calm,-,0.12,Rain,Rain,0,2012-10-20 06:27:00
11:37 PM,53.6,50.0,88,29.87,4.0,Calm,Calm,-,0.14,Rain,Light Rain,0,2012-10-20 06:37:00
11:53 PM,53.1,50.0,89,29.87,6.0,Calm,Calm,-,0.15,Rain,Light Rain,0,2012-10-20 06:53:00